Starlink 31681

operational
NORAD ID: 59746 Int'l Des: 2024-090 Owner: SPXS Country: US Constellation: starlink
LEOCIRCULAR

About Starlink 31681

Description loading...

Live Position

Loading 3D Globe...

Upcoming Passes

Altitude History

Altitude vs Time

uPlot chart will show altitude changes over time

Two-Line Element Set

1 59746U 24090S 26102.38480005 -.00001032 00000-0 -27992-4 0 9996
2 59746 43.0033 346.2597 0001004 272.4655 87.6082 15.27572695108670
Epoch: Apr 12, 2026 • Age: 8 hours

Current Status

Altitude 486.4 km
Velocity 7.63 km/s
Sub-Earth Point 41.08°N, 49.27°W
Launch Date May 13, 2024
Age 1.9 years
Type internet

Technical Details

Classification Payload
Mass 730.00 kg
Dry Mass 700.00 kg
Total Mass 730.00 kg
Length 0.30 m
Diameter 4.10 m
Span 29.00 m
Shape Box + pan
Manufacturer SPXS
Bus Type Starlink V2M
Phase Status In Orbit
Owner/State SPXS/US

Large Constellations

Loading constellations...